[[{"header":{"parameterUnit":"m.s-1","parameterCategory":1,"la1":30.2991,"la2":30.254,"lo1":-89.0895,"lo2":-89.0444,"dy":0.0017,"dx":0.0017,"nx":28,"ny":28,"refTime":"2023-11-23T03:00:00:Z","depth":0,"parameterNumber":2,"parameterNumberName":"U-component_of_WINDS"},"data":[0,0,0,0,0,0,0,0,0,0,0,0,0,0,0,0,0,0,0,0,0,0,0,0,0,0,0,0,0,0,0,0,0,0,0,0,0,0,0,0,0,0,0,0,0,0,0,0,0,0,0,0,0,0,0,0,0,0,-2.584,-2.5839,0,-2.5813,-2.5812,-2.5812,-2.5717,-2.5715,-2.5713,-2.5711,-2.5686,-2.5687,-2.5688,0,0,0,0,0,0,0,0,0,0,0,0,0,-2.5812,-2.5813,-2.584,-2.5839,-2.5839,-2.5813,-2.5812,-2.5812,-2.5718,-2.5715,-2.5712,-2.571,-2.5685,-2.5687,-2.5688,0,0,0,0,0,0,0,0,0,0,0,0,0,-2.5808,-2.5813,-2.584,-2.5789,-2.5784,-2.5813,-2.5812,-2.5812,-2.5718,-2.5715,-2.5712,-2.5709,-2.5685,-2.5687,-2.5688,-2.5765,0,0,-2.5695,-2.5695,0,0,0,0,0,0,0,0,-2.5809,-2.5809,-2.5797,-2.5792,-2.5787,-2.5765,-2.5793,-2.5796,-2.5719,-2.5743,-2.5711,-2.5707,-2.5715,-2.5714,-2.5716,-2.5764,-2.5763,-2.5695,-2.5696,-2.5697,-2.5697,0,0,0,0,0,0,0,-2.5809,-2.581,-2.5829,-2.5797,-2.5791,-2.5768,-2.5764,-2.5793,-2.5748,-2.5741,-2.5734,-2.5732,-2.5711,-2.5714,-2.5715,-2.5763,-2.5695,-2.5696,-2.5698,-2.5698,-2.5874,-2.5877,0,0,0,0,0,0,-2.5816,-2.5811,-2.583,-2.5828,-2.579,-2.5771,-2.5766,-2.5775,-2.5747,-2.5739,-2.5735,-2.5728,-2.5713,-2.5713,-2.5714,-2.5803,-2.5697,-2.5699,-2.57,-2.587,-2.5874,-2.5878,0,0,0,0,0,0,-2.5816,-2.5819,-2.5831,-2.5818,-2.5817,-2.5775,-2.5786,-2.5777,-2.5779,-2.5742,-2.5734,-2.5746,-2.571,-2.5711,-2.5753,-2.5801,-2.57,-2.5701,-2.5866,-2.5871,-2.5876,-2.5982,0,0,0,0,0,0,-2.5816,-2.5819,-2.5848,-2.5819,-2.5819,-2.5871,-2.5788,-2.5778,-2.5783,-2.5773,-2.5751,-2.5744,-2.5708,-2.5751,-2.5755,-2.5802,-2.5703,-2.5862,-2.5868,-2.5875,-2.5974,-2.599,-2.6003,0,0,0,0,0,-2.5815,-2.5879,-2.585,-2.5852,-2.5853,-2.5874,-2.5874,-2.583,-2.5787,-2.5816,-2.5792,-2.5744,-2.5794,-2.5756,-2.576,-2.5808,-2.5859,-2.5867,-2.5874,-2.5967,-2.5987,-2.6003,0,0,0,0,0,0,-2.5915,-2.5874,-2.5841,-2.5897,-2.589,-2.5858,-2.5892,-2.5852,-2.5857,-2.5848,-2.5794,-2.579,-2.5841,-2.5828,-2.5786,-2.5881,-2.5819,-2.5828,-2.5888,-2.5906,-2.5921,-2.5924,-2.5705,0,0,0,0,0,-2.5943,-2.5963,-2.5926,-2.5979,-2.5977,-2.5936,-2.5943,-2.591,-2.59,-2.5897,-2.5876,-2.5869,-2.5883,-2.5893,-2.5904,-2.5971,-2.5965,-2.6006,-2.6021,-2.6033,-2.6042,-2.6078,-2.6096,-2.5904,-2.5904,-2.5903,0,0,-2.6002,-2.5982,-2.5998,-2.5999,-2.5989,-2.6012,-2.5934,-2.596,-2.5977,-2.5901,-2.594,-2.5925,-2.5913,-2.5969,-2.5992,-2.596,-2.6094,-2.6043,-2.6053,-2.6055,-2.6088,-2.6106,-2.6122,-2.5909,-2.5908,-2.5907,0,0,-2.6122,-2.6108,-2.6151,-2.6143,-2.6129,-2.6101,-2.6112,-2.6086,-2.6072,-2.611,-2.6054,-2.6073,-2.6098,-2.6093,-2.6094,-2.6211,-2.6169,-2.6216,-2.6295,-2.633,-2.6345,-2.6358,-2.6402,-2.6418,-2.6225,-2.6225,-2.6225,0,-2.6198,-2.6229,-2.6179,-2.621,-2.6213,-2.6144,-2.6188,-2.6182,-2.6173,-2.6177,-2.614,-2.6171,-2.6158,-2.6212,-2.6241,-2.6243,-2.6254,-2.6219,-2.6347,-2.636,-2.6371,-2.6412,-2.6429,-2.6231,-2.623,-2.623,-2.6229,0,-2.6323,-2.6346,-2.6382,-2.6375,-2.6381,-2.6418,-2.6376,-2.6388,-2.6355,-2.6331,-2.6371,-2.6353,-2.636,-2.637,-2.6337,-2.642,-2.64,-2.6356,-2.6293,-2.6396,-2.6434,-2.645,-2.624,-2.6238,-2.6236,-2.6234,0,0,-2.6506,-2.647,-2.6485,-2.6481,-2.646,-2.6477,-2.6512,-2.6517,-2.653,-2.6525,-2.6554,-2.6577,-2.6536,-2.6537,-2.6503,-2.6534,-2.6631,-2.6486,-2.6485,-2.6515,-2.6722,-2.6757,-2.6776,-2.6601,-2.6604,-2.6606,-2.6724,0,-2.6622,-2.6678,-2.6635,-2.67,-2.6721,-2.6655,-2.6686,-2.6677,-2.6656,-2.6671,-2.6647,-2.6665,-2.6608,-2.6609,-2.6636,-2.6613,-2.6672,-2.6604,-2.6629,-2.6631,-2.6636,-2.6795,-2.6832,-2.6944,-2.6738,-2.674,-2.6742,0,-2.6764,-2.6766,-2.6833,-2.6808,-2.6815,-2.6843,-2.6846,-2.686,-2.6849,-2.6831,-2.6833,-2.6791,-2.6824,-2.676,-2.6806,-2.6761,-2.6768,-2.6759,-2.6762,-2.6764,-2.6694,-2.6804,-2.6978,-2.6996,-2.6765,-2.6763,-2.6761,0,-2.6893,-2.6912,-2.6955,-2.6953,-2.6925,-2.6947,-2.6936,-2.6922,-2.6928,-2.693,-2.6934,-2.694,-2.6944,-2.695,-2.6912,-2.6868,-2.6963,-2.6896,-2.6951,-2.6952,-2.6976,-2.6975,-2.7155,-2.6978,-2.6977,-2.6977,-2.6977,0,-2.7028,-2.7072,-2.7013,-2.704,-2.7087,-2.7037,-2.7086,-2.7068,-2.7056,-2.7079,-2.7022,-2.7045,-2.6991,-2.7009,-2.6979,-2.7023,-2.7024,-2.7012,-2.7004,-2.7018,-2.702,-2.7024,-2.7016,-2.6981,-2.698,-2.6979,-2.6979,0,-2.7181,-2.7143,-2.7186,-2.7155,-2.7149,-2.7186,-2.716,-2.7184,-2.7158,-2.7188,-2.7192,-2.7153,-2.7171,-2.7132,-2.7144,-2.7124,-2.7187,-2.7165,-2.7191,-2.7185,-2.7243,-2.7239,-2.7434,-2.7458,-2.7263,-2.7265,-2.7266,0,-2.7271,-2.7303,-2.7276,-2.7287,-2.7279,-2.7298,-2.7304,-2.7255,-2.7264,-2.7254,-2.728,-2.7293,-2.7301,-2.7332,-2.7306,-2.7315,-2.7295,-2.7362,-2.7296,-2.731,-2.7298,-2.7298,-2.7301,-2.7377,-2.7379,-2.7381,-2.7383,0,-2.7434,-2.7414,-2.7424,-2.7429,-2.7438,-2.7439,-2.7437,-2.7449,-2.7398,-2.7411,-2.7428,-2.7434,-2.7447,-2.7461,-2.7464,-2.7454,-2.7411,-2.7403,-2.7417,-2.7433,-2.7447,-2.7442,-2.723,-2.74,-2.7398,-2.7397,-2.7396,-2.7395,-2.7559,-2.7586,-2.7571,-2.7585,-2.7578,-2.7577,-2.7598,-2.7575,-2.7588,-2.7594,-2.7565,-2.7589,-2.7578,-2.7577,-2.7572,-2.7591,-2.756,-2.758,-2.7585,-2.7591,-2.7602,-2.7443,-2.7591,-2.759,-2.759,-2.7589,-2.7589,0,-2.7722,-2.7709,-2.7722,-2.772,-2.7732,-2.7688,-2.7683,-2.7696,-2.7718,-2.771,-2.7719,-2.774,-2.7753,-2.7727,-2.7736,-2.7757,-2.7737,-2.7761,-2.776,-2.7759,-2.7627,-2.7615,-2.7777,-2.7777,-2.7777,-2.7777,-2.7777,-2.7777,-2.7807,-2.785,-2.7828,-2.7866,-2.7853,-2.7876,-2.7877,-2.7876,-2.787,-2.7895,-2.7906,-2.7888,-2.7874,-2.7882,-2.7893,-2.7885,-2.7892,-2.7923,-2.7909,-2.7786,-2.7768,-2.7751,-2.7739,-2.7925,-2.7925,-2.8039,-2.804,-2.8041]},{"header":{"parameterUnit":"m.s-1","parameterCategory":1,"la1":30.2991,"la2":30.254,"lo1":-89.0895,"lo2":-89.0444,"dy":0.0017,"dx":0.0017,"nx":28,"ny":28,"refTime":"2023-11-23T03:00:00:Z","depth":0,"parameterNumber":3,"parameterNumberName":"V-component_of_WINDS"},"data":[0,0,0,0,0,0,0,0,0,0,0,0,0,0,0,0,0,0,0,0,0,0,0,0,0,0,0,0,0,0,0,0,0,0,0,0,0,0,0,0,0,0,0,0,0,0,0,0,0,0,0,0,0,0,0,0,0,0,-2.0987,-2.0987,0,-2.1,-2.1,-2.1001,-2.0969,-2.0968,-2.0967,-2.0966,-2.0979,-2.098,-2.0981,0,0,0,0,0,0,0,0,0,0,0,0,0,-2.0933,-2.0934,-2.0987,-2.0987,-2.0987,-2.1,-2.1,-2.1001,-2.0969,-2.0968,-2.0966,-2.0965,-2.0978,-2.098,-2.0982,0,0,0,0,0,0,0,0,0,0,0,0,0,-2.0952,-2.0934,-2.0987,-2.0973,-2.0972,-2.1,-2.1,-2.1001,-2.0969,-2.0967,-2.0966,-2.0965,-2.0978,-2.098,-2.0982,-2.1024,0,0,-2.0988,-2.0989,0,0,0,0,0,0,0,0,-2.0951,-2.0954,-2.0975,-2.0974,-2.0973,-2.0981,-2.0986,-2.1008,-2.0969,-2.097,-2.0966,-2.0964,-2.0981,-2.0982,-2.0988,-2.1025,-2.1025,-2.0988,-2.0989,-2.099,-2.099,0,0,0,0,0,0,0,-2.095,-2.0954,-2.0992,-2.0975,-2.0974,-2.0966,-2.0967,-2.099,-2.0984,-2.097,-2.0968,-2.097,-2.098,-2.0986,-2.0988,-2.1025,-2.0988,-2.099,-2.0991,-2.0991,-2.1097,-2.1099,0,0,0,0,0,0,-2.095,-2.0953,-2.0992,-2.0993,-2.0958,-2.0968,-2.0969,-2.098,-2.0983,-2.0983,-2.0971,-2.0968,-2.0984,-2.0986,-2.0989,-2.1039,-2.099,-2.0992,-2.0993,-2.1096,-2.1098,-2.1099,0,0,0,0,0,0,-2.0949,-2.0954,-2.0991,-2.0972,-2.0976,-2.097,-2.0983,-2.0981,-2.0988,-2.0984,-2.0983,-2.0979,-2.0983,-2.0986,-2.1016,-2.1039,-2.0993,-2.0994,-2.1094,-2.1096,-2.1098,-2.1139,0,0,0,0,0,0,-2.0948,-2.0954,-2.097,-2.0973,-2.0977,-2.1018,-2.0984,-2.0982,-2.0991,-2.0987,-2.0991,-2.099,-2.0982,-2.1013,-2.1017,-2.1041,-2.0996,-2.1091,-2.1095,-2.1098,-2.1136,-2.1143,-2.1149,0,0,0,0,0,-2.0946,-2.0981,-2.0971,-2.0976,-2.0998,-2.102,-2.1022,-2.1012,-2.0993,-2.1009,-2.1007,-2.099,-2.1035,-2.1016,-2.1021,-2.1045,-2.109,-2.1094,-2.1097,-2.1133,-2.1142,-2.1149,0,0,0,0,0,0,-2.0982,-2.0981,-2.097,-2.1007,-2.1014,-2.1014,-2.1035,-2.1021,-2.1033,-2.1029,-2.1015,-2.1016,-2.1049,-2.105,-2.1028,-2.1086,-2.1059,-2.1064,-2.1085,-2.1093,-2.1099,-2.1099,-2.0997,0,0,0,0,0,-2.0994,-2.1013,-2.1011,-2.1044,-2.1047,-2.1041,-2.105,-2.1041,-2.1047,-2.105,-2.1049,-2.1056,-2.1071,-2.1082,-2.1096,-2.1135,-2.1136,-2.1154,-2.1161,-2.1166,-2.1171,-2.1192,-2.12,-2.1111,-2.1111,-2.1111,0,0,-2.102,-2.1022,-2.1034,-2.1051,-2.1055,-2.1074,-2.1043,-2.1064,-2.1078,-2.1053,-2.1081,-2.1081,-2.1087,-2.1122,-2.1137,-2.1124,-2.1195,-2.1171,-2.1175,-2.1177,-2.1197,-2.1205,-2.1212,-2.1114,-2.1113,-2.1113,0,0,-2.1076,-2.1079,-2.1107,-2.1112,-2.1118,-2.1113,-2.112,-2.1122,-2.1121,-2.1149,-2.113,-2.1146,-2.1173,-2.1178,-2.1185,-2.1242,-2.1227,-2.1247,-2.1281,-2.1302,-2.1309,-2.1315,-2.1336,-2.1344,-2.1251,-2.1251,-2.1251,0,-2.1107,-2.1136,-2.1123,-2.1146,-2.1154,-2.1131,-2.1159,-2.1164,-2.1175,-2.118,-2.1165,-2.1198,-2.1201,-2.1236,-2.125,-2.1256,-2.1263,-2.1247,-2.1309,-2.1315,-2.132,-2.134,-2.1348,-2.1254,-2.1253,-2.1253,-2.1253,0,-2.1174,-2.1193,-2.1215,-2.1226,-2.1236,-2.1261,-2.1252,-2.1264,-2.1254,-2.1251,-2.1279,-2.1281,-2.1295,-2.1303,-2.1293,-2.1337,-2.1329,-2.1311,-2.1284,-2.1332,-2.135,-2.1358,-2.1257,-2.1256,-2.1256,-2.1255,0,0,-2.1255,-2.1258,-2.1266,-2.1271,-2.1275,-2.129,-2.1314,-2.1328,-2.1339,-2.1346,-2.1366,-2.1389,-2.1373,-2.138,-2.137,-2.1388,-2.1434,-2.1369,-2.1368,-2.1381,-2.1483,-2.1497,-2.1506,-2.1424,-2.1425,-2.1426,-2.1483,0,-2.1311,-2.1353,-2.1342,-2.1383,-2.1401,-2.1379,-2.14,-2.1405,-2.1402,-2.1417,-2.1413,-2.143,-2.1407,-2.1411,-2.1428,-2.1425,-2.1455,-2.1421,-2.1442,-2.1443,-2.1443,-2.1516,-2.153,-2.1584,-2.149,-2.1491,-2.1492,0,-2.1383,-2.1393,-2.1437,-2.1438,-2.1446,-2.1465,-2.1476,-2.149,-2.1495,-2.1492,-2.1499,-2.1486,-2.1509,-2.1481,-2.1513,-2.149,-2.1498,-2.1498,-2.15,-2.1502,-2.1472,-2.1521,-2.1601,-2.1609,-2.1503,-2.1502,-2.1502,0,-2.1438,-2.1463,-2.1493,-2.1497,-2.1499,-2.1513,-2.1515,-2.1518,-2.1527,-2.1537,-2.1543,-2.1555,-2.1562,-2.1572,-2.1562,-2.1542,-2.1596,-2.1567,-2.1594,-2.1594,-2.1607,-2.1606,-2.169,-2.161,-2.161,-2.161,-2.161,0,-2.1503,-2.1531,-2.1518,-2.1536,-2.1566,-2.1552,-2.1582,-2.1581,-2.1584,-2.1601,-2.1583,-2.1599,-2.1585,-2.16,-2.1592,-2.162,-2.1623,-2.1621,-2.1619,-2.1624,-2.1624,-2.1629,-2.1626,-2.1612,-2.1612,-2.1611,-2.1611,0,-2.1571,-2.1563,-2.1594,-2.1593,-2.1594,-2.1616,-2.1616,-2.1632,-2.1627,-2.1649,-2.1654,-2.1646,-2.1663,-2.1654,-2.1671,-2.1666,-2.1702,-2.1695,-2.1701,-2.1699,-2.1727,-2.1725,-2.1818,-2.183,-2.1742,-2.1743,-2.1743,0,-2.1614,-2.1635,-2.1636,-2.1646,-2.1649,-2.1666,-2.1675,-2.1662,-2.1672,-2.1679,-2.1695,-2.171,-2.1721,-2.1749,-2.1745,-2.1758,-2.1751,-2.1783,-2.1753,-2.1757,-2.1753,-2.1752,-2.1754,-2.1789,-2.179,-2.1791,-2.1792,0,-2.169,-2.1685,-2.1699,-2.1711,-2.1723,-2.1732,-2.1739,-2.1748,-2.1735,-2.1747,-2.1764,-2.1773,-2.1791,-2.1806,-2.1817,-2.1818,-2.1803,-2.1801,-2.1808,-2.1814,-2.1817,-2.1816,-2.1718,-2.1799,-2.1798,-2.1798,-2.1798,-2.1797,-2.1747,-2.1765,-2.1769,-2.1785,-2.1789,-2.1796,-2.1811,-2.1808,-2.1822,-2.1836,-2.1827,-2.1847,-2.1851,-2.1864,-2.1867,-2.1883,-2.187,-2.188,-2.1883,-2.1886,-2.189,-2.1813,-2.1884,-2.1884,-2.1884,-2.1884,-2.1884,0,-2.1824,-2.1825,-2.184,-2.1851,-2.1863,-2.1847,-2.1854,-2.1865,-2.1883,-2.1888,-2.19,-2.1919,-2.1934,-2.1931,-2.1944,-2.1957,-2.195,-2.1961,-2.196,-2.1961,-2.19,-2.1893,-2.1966,-2.1966,-2.1966,-2.1966,-2.1966,-2.1966,-2.1865,-2.1894,-2.1889,-2.1919,-2.192,-2.194,-2.1945,-2.1952,-2.1956,-2.1978,-2.199,-2.1988,-2.1989,-2.2002,-2.2015,-2.2014,-2.202,-2.2033,-2.2029,-2.1973,-2.1965,-2.1957,-2.1951,-2.2034,-2.2034,-2.2089,-2.2089,-2.209]}]]